FW0532 Weather Reports


Display with metric or nautical units.
time (UTC)temp
F
wind
direction
speed
MPH
gust
MPH
rain 1hr
in
rain 24hr
in
rain mn
in
humidity
%
barometer
mb
20260904172322 92 287 2.0 10.0 0.00 0.00 0.00 63 1014.5
20260904171321 92 26 3.0 9.0 0.00 0.00 0.00 60 1014.6
20260904170821 93 293 2.0 9.0 0.00 0.00 0.00 61 1014.9
20260904170351 93 292 2.0 11.0 0.00 0.00 0.00 60 1014.9
20260904165820 93 355 6.0 14.0 0.00 0.00 0.00 59 1014.9
20260904165320 93 301 8.0 14.0 0.00 0.00 0.00 60 1015.0
20260904164320 93 27 4.0 7.0 0.00 0.00 0.00 58 1015.0
20260904163820 93 333 2.0 9.0 0.00 0.00 0.00 61 1015.0
20260904163350 93 310 2.0 9.0 0.00 0.00 0.00 60 1015.0
20260904162849 93 280 3.0 10.0 0.00 0.00 0.00 60 1015.0
20260904162349 92 17 3.0 10.0 0.00 0.00 0.00 61 1015.0
20260904161849 92 291 5.0 9.0 0.00 0.00 0.00 62 1015.1
20260904160849 92 176 2.0 9.0 0.00 0.00 0.00 62 1015.1
20260904155849 91 316 3.0 9.0 0.00 0.00 0.00 64 1015.2
20260904155348 91 327 1.0 9.0 0.00 0.00 0.00 63 1015.3
20260904154848 91 17 4.0 9.0 0.00 0.00 0.00 64 1015.2
20260904152848 90 42 2.0 6.0 0.00 0.00 0.00 66 1015.2
20260904152347 90 340 4.0 9.0 0.00 0.00 0.00 70 1015.2
20260904151347 89 26 3.0 5.0 0.00 0.00 0.00 69 1015.1
20260904145846 89 321 0.0 6.0 0.00 0.00 0.00 68 1014.9
20260904144847 89 269 3.0 5.0 0.00 0.00 0.00 70 1014.9
20260904144346 88 300 4.0 6.0 0.00 0.00 0.00 72 1014.9
20260904143846 88 279 0.0 6.0 0.00 0.00 0.00 71 1014.9
20260904142345 86 187 1.0 4.0 0.00 0.00 0.00 77 1014.6
20260904141846 85 253 0.0 4.0 0.00 0.00 0.00 76 1014.6
20260904141345 85 22 0.0 4.0 0.00 0.00 0.00 79 1014.5
20260904140845 84 233 0.0 5.0 0.00 0.00 0.00 77 1014.6
20260904140345 84 259 4.0 5.0 0.00 0.00 0.00 78 1014.7
20260904135845 83 211 1.0 4.0 0.00 0.00 0.00 80 1014.7
20260904135344 82 91 2.0 4.0 0.00 0.00 0.00 80 1014.5
20260904134845 82 246 0.0 4.0 0.00 0.00 0.00 81 1014.6
20260904134345 81 275 1.0 4.0 0.00 0.00 0.00 81 1014.6
20260904133344 81 254 2.0 2.0 0.00 0.00 0.00 82 1014.6
20260904132844 80 192 0.0 3.0 0.00 0.00 0.00 84 1014.3
20260904132344 80 192 0.0 3.0 0.00 0.00 0.00 84 1014.4
20260904131844 79 5 2.0 4.0 0.00 0.00 0.00 86 1014.4
20260904131343 79 161 1.0 4.0 0.00 0.00 0.00 87 1014.3
20260904130843 78 239 0.0 4.0 0.00 0.00 0.00 89 1014.2
20260904130343 77 185 3.0 4.0 0.00 0.00 0.00 92 1014.2
20260904125843 76 158 1.0 4.0 0.00 0.00 0.00 94 1014.3
20260904125343 75 195 2.0 4.0 0.00 0.00 0.00 96 1014.4
20260904124343 74 242 0.0 0.0 0.00 0.00 0.00 96 1014.5
20260904123843 74 242 0.0 0.0 0.00 0.00 0.00 96 1014.6
20260904123342 73 242 0.0 0.0 0.00 0.00 0.00 96 1014.4
20260904122342 73 242 0.0 0.0 0.00 0.00 0.00 96 1014.6
20260904121342 72 242 0.0 0.0 0.00 0.00 0.00 96 1014.6
20260904120842 72 242 0.0 0.0 0.00 0.00 0.00 96 1014.5
20260904120341 72 242 0.0 0.0 0.00 0.00 0.00 96 1014.4
20260904115841 72 242 0.0 0.0 0.00 0.00 0.00 96 1014.3
20260904115341 71 242 0.0 0.0 0.00 0.00 0.00 96 1014.1
20260904114841 71 242 0.0 0.0 0.00 0.00 0.00 96 1014.1
20260904114341 71 242 0.0 0.0 0.00 0.00 0.00 95 1014.1
20260904113840 71 242 0.0 0.0 0.00 0.00 0.00 95 1013.9
20260904112840 70 242 0.0 0.0 0.00 0.00 0.00 95 1013.7
20260904112340 70 242 0.0 0.0 0.00 0.00 0.00 95 1013.5
20260904111840 70 242 0.0 0.0 0.00 0.00 0.00 95 1013.6
20260904111339 70 242 0.0 0.0 0.00 0.00 0.00 95 1013.6
20260904110840 70 242 0.0 0.0 0.00 0.00 0.00 95 1013.5
20260904110340 70 242 0.0 0.0 0.00 0.00 0.00 95 1013.4
20260904105839 70 242 0.0 0.0 0.00 0.00 0.00 95 1013.7
20260904105339 70 242 0.0 0.0 0.00 0.00 0.00 95 1013.8
20260904104839 70 242 0.0 0.0 0.00 0.00 0.00 95 1013.7
20260904104339 70 242 0.0 0.0 0.00 0.00 0.00 95 1013.6
20260904103839 70 242 0.0 0.0 0.00 0.00 0.00 95 1013.5
20260904103339 70 242 0.0 0.0 0.00 0.00 0.00 95 1013.4
20260904102838 70 242 0.0 0.0 0.00 0.00 0.00 95 1013.4
20260904102338 70 242 0.0 0.0 0.00 0.00 0.00 95 1013.3
20260904101838 70 242 0.0 0.0 0.00 0.00 0.00 95 1013.3
20260904101338 70 242 0.0 0.0 0.00 0.00 0.00 95 1013.2
20260904100838 70 242 0.0 0.0 0.00 0.00 0.00 95 1013.2
20260904095837 70 242 0.0 0.0 0.00 0.00 0.00 95 1013.4
20260904095337 70 242 0.0 0.0 0.00 0.00 0.00 95 1013.3
20260904094837 70 242 0.0 0.0 0.00 0.00 0.00 95 1013.3
20260904094337 70 242 0.0 0.0 0.00 0.00 0.00 95 1013.3
20260904093837 70 242 0.0 0.0 0.00 0.00 0.00 94 1013.3
20260904093337 70 242 0.0 0.0 0.00 0.00 0.00 95 1013.4
20260904092837 70 242 0.0 0.0 0.00 0.00 0.00 94 1013.4
20260904092336 70 242 0.0 0.0 0.00 0.00 0.00 95 1013.2
20260904091836 70 242 0.0 0.0 0.00 0.00 0.00 95 1013.3
20260904091336 70 242 0.0 0.0 0.00 0.00 0.00 95 1013.2
20260904090836 70 242 0.0 0.0 0.00 0.00 0.00 94 1013.1
20260904090335 70 242 0.0 0.0 0.00 0.00 0.00 95 1013.1
20260904085835 70 242 0.0 0.0 0.00 0.00 0.00 95 1013.1
20260904085335 70 242 0.0 0.0 0.00 0.00 0.00 95 1013.2
20260904084835 70 242 0.0 0.0 0.00 0.00 0.00 94 1013.2
20260904084335 70 242 0.0 0.0 0.00 0.00 0.00 94 1013.2
20260904083835 70 242 0.0 0.0 0.00 0.00 0.00 94 1013.3
20260904083335 71 242 0.0 0.0 0.00 0.00 0.00 94 1013.5
20260904082835 71 242 0.0 0.0 0.00 0.00 0.00 94 1013.4
20260904082335 71 242 0.0 0.0 0.00 0.00 0.00 94 1013.5
20260904081834 71 242 0.0 0.0 0.00 0.00 0.00 94 1013.5
20260904081334 71 242 0.0 0.0 0.00 0.00 0.00 94 1013.6
20260904080834 71 242 0.0 0.0 0.00 0.00 0.00 94 1013.6
20260904080334 71 242 0.0 0.0 0.00 0.00 0.00 94 1013.6
20260904075834 71 242 0.0 0.0 0.00 0.00 0.00 94 1013.7
20260904075334 71 242 0.0 0.0 0.00 0.00 0.00 94 1013.7
20260904074833 71 242 0.0 0.0 0.00 0.00 0.00 94 1013.8
20260904074333 71 242 0.0 0.0 0.00 0.00 0.00 94 1013.7
20260904073833 71 242 0.0 0.0 0.00 0.00 0.00 94 1013.8
20260904073333 71 242 0.0 0.0 0.00 0.00 0.00 94 1013.8
20260904072332 71 242 0.0 0.0 0.00 0.00 0.00 94 1013.9
20260904071832 71 242 0.0 0.0 0.00 0.00 0.00 94 1014.0
20260904070832 71 242 0.0 0.0 0.00 0.00 0.00 93 1014.0
20260904070332 71 242 0.0 1.0 0.00 0.00 0.00 93 1014.1
20260904065832 71 242 0.0 1.0 0.00 0.00 0.00 93 1014.0
20260904065332 71 242 0.0 0.0 0.00 0.00 0.00 93 1014.1
20260904064331 71 242 0.0 0.0 0.00 0.00 0.00 93 1014.1
20260904063831 71 242 0.0 0.0 0.00 0.00 0.00 93 1014.1
20260904063331 71 242 0.0 0.0 0.00 0.00 0.00 93 1014.1
20260904062831 71 242 0.0 0.0 0.00 0.00 0.00 94 1014.0